| time (UTC) | temp C | wind direction | speed KPH | gust KPH | rain 1hr cm | rain 24hr cm | rain mn cm | humidity % | barometer mb |
| 20260508185503 | 21 | 129 | 1.6 | 3.2 | 0.00 | 0.00 | 0.00 | 35 | 1017.9 |
| 20260508185000 | 21 | 109 | 1.6 | 3.2 | 0.00 | 0.00 | 0.00 | 32 | 1018.2 |
| 20260508184458 | 21 | 75 | 4.8 | 8.0 | 0.00 | 0.00 | 0.00 | 34 | 1018.1 |
| 20260508183954 | 21 | 90 | 6.4 | 8.0 | 0.00 | 0.00 | 0.00 | 34 | 1018.1 |
| 20260508183450 | 21 | 78 | 6.4 | 8.0 | 0.00 | 0.00 | 0.00 | 35 | 1017.9 |
| 20260508182946 | 21 | 39 | 1.6 | 1.6 | 0.00 | 0.00 | 0.00 | 37 | 1018.1 |
| 20260508182443 | 20 | 150 | 1.6 | 1.6 | 0.00 | 0.00 | 0.00 | 36 | 1018.3 |
| 20260508181938 | 20 | 154 | 0.0 | 1.6 | 0.00 | 0.00 | 0.00 | 44 | 1018.1 |
| 20260508181435 | 20 | 176 | 3.2 | 3.2 | 0.00 | 0.00 | 0.00 | 40 | 1018.3 |
| 20260508180933 | 20 | 177 | 3.2 | 3.2 | 0.00 | 0.00 | 0.00 | 38 | 1018.3 |
| 20260508180429 | 21 | 145 | 0.0 | 0.0 | 0.00 | 0.00 | 0.00 | 40 | 1018.1 |
| 20260508175925 | 20 | 81 | 6.4 | 8.0 | 0.00 | 0.00 | 0.00 | 36 | 1018.5 |
| 20260508175422 | 19 | 36 | 1.6 | 1.6 | 0.00 | 0.00 | 0.00 | 36 | 1018.6 |
| 20260508174920 | 20 | 21 | 3.2 | 3.2 | 0.00 | 0.00 | 0.00 | 37 | 1018.4 |
| 20260508174417 | 21 | 104 | 0.0 | 1.6 | 0.00 | 0.00 | 0.00 | 39 | 1019.1 |
| 20260508173914 | 20 | 80 | 1.6 | 1.6 | 0.00 | 0.00 | 0.00 | 45 | 1018.9 |
| 20260508173411 | 20 | 151 | 1.6 | 1.6 | 0.00 | 0.00 | 0.00 | 41 | 1019.0 |
| 20260508172906 | 19 | 223 | 3.2 | 3.2 | 0.00 | 0.00 | 0.00 | 43 | 1018.8 |
| 20260508172405 | 18 | 300 | 0.0 | 1.6 | 0.00 | 0.00 | 0.00 | 41 | 1019.1 |
| 20260508171900 | 20 | 106 | 4.8 | 4.8 | 0.00 | 0.00 | 0.00 | 39 | 1019.2 |
| 20260508171356 | 20 | 197 | 1.6 | 1.6 | 0.00 | 0.00 | 0.00 | 39 | 1019.3 |
| 20260508170853 | 19 | 77 | 6.4 | 8.0 | 0.00 | 0.00 | 0.00 | 40 | 1019.6 |
| 20260508170351 | 19 | 145 | 0.0 | 0.0 | 0.00 | 0.00 | 0.00 | 50 | 1019.6 |
| 20260508165847 | 19 | 69 | 4.8 | 8.0 | 0.00 | 0.00 | 0.00 | 43 | 1019.7 |
| 20260508165345 | 19 | 91 | 6.4 | 9.7 | 0.00 | 0.00 | 0.00 | 42 | 1019.9 |
| 20260508164841 | 19 | 94 | 4.8 | 4.8 | 0.00 | 0.00 | 0.00 | 44 | 1019.9 |
| 20260508164338 | 18 | 96 | 3.2 | 3.2 | 0.00 | 0.00 | 0.00 | 42 | 1020.0 |
| 20260508163836 | 18 | 153 | 3.2 | 3.2 | 0.00 | 0.00 | 0.00 | 49 | 1020.0 |
| 20260508163334 | 18 | 133 | 3.2 | 3.2 | 0.00 | 0.00 | 0.00 | 44 | 1020.1 |
| 20260508162829 | 18 | 148 | 3.2 | 3.2 | 0.00 | 0.00 | 0.00 | 45 | 1020.4 |
| 20260508162326 | 17 | 93 | 0.0 | 1.6 | 0.00 | 0.00 | 0.00 | 47 | 1020.6 |
| 20260508161823 | 17 | 78 | 0.0 | 1.6 | 0.00 | 0.00 | 0.00 | 54 | 1020.5 |
| 20260508161320 | 17 | 127 | 1.6 | 1.6 | 0.00 | 0.00 | 0.00 | 53 | 1020.8 |
| 20260508160818 | 16 | 170 | 3.2 | 3.2 | 0.00 | 0.00 | 0.00 | 53 | 1020.8 |
| 20260508160316 | 17 | 241 | 3.2 | 4.8 | 0.00 | 0.00 | 0.00 | 55 | 1020.9 |
| 20260508155812 | 16 | 259 | 1.6 | 3.2 | 0.00 | 0.00 | 0.00 | 53 | 1021.1 |
| 20260508155309 | 16 | 221 | 3.2 | 3.2 | 0.00 | 0.00 | 0.00 | 53 | 1021.1 |
| 20260508154806 | 16 | 248 | 4.8 | 8.0 | 0.00 | 0.00 | 0.00 | 56 | 1021.1 |
| 20260508154304 | 15 | 328 | 4.8 | 4.8 | 0.00 | 0.00 | 0.00 | 58 | 1021.0 |
| 20260508153800 | 15 | 21 | 4.8 | 4.8 | 0.00 | 0.00 | 0.00 | 64 | 1021.3 |
| 20260508153258 | 15 | 0 | 1.6 | 3.2 | 0.00 | 0.00 | 0.00 | 65 | 1021.2 |
| 20260508152754 | 16 | 34 | 4.8 | 4.8 | 0.00 | 0.00 | 0.00 | 65 | 1021.3 |
| 20260508152250 | 15 | 92 | 3.2 | 3.2 | 0.00 | 0.00 | 0.00 | 63 | 1021.3 |
| 20260508151746 | 15 | 211 | 0.0 | 1.6 | 0.00 | 0.00 | 0.00 | 69 | 1021.3 |
| 20260508151243 | 16 | 174 | 3.2 | 3.2 | 0.00 | 0.00 | 0.00 | 69 | 1021.3 |
| 20260508150740 | 16 | 84 | 3.2 | 3.2 | 0.00 | 0.00 | 0.00 | 70 | 1021.4 |
| 20260508150237 | 15 | 134 | 0.0 | 1.6 | 0.00 | 0.00 | 0.00 | 78 | 1021.6 |
| 20260508145733 | 13 | 232 | 1.6 | 1.6 | 0.00 | 0.00 | 0.00 | 81 | 1021.6 |
| 20260508145229 | 14 | 106 | 0.0 | 0.0 | 0.00 | 0.00 | 0.00 | 76 | 1021.5 |
| 20260508144726 | 13 | 125 | 1.6 | 1.6 | 0.00 | 0.00 | 0.00 | 80 | 1021.6 |
| 20260508144224 | 13 | 62 | 1.6 | 3.2 | 0.00 | 0.00 | 0.00 | 81 | 1021.6 |
| 20260508143721 | 13 | 84 | 1.6 | 3.2 | 0.00 | 0.00 | 0.00 | 82 | 1021.5 |
| 20260508143218 | 13 | 122 | 3.2 | 3.2 | 0.00 | 0.00 | 0.00 | 81 | 1021.6 |
| 20260508142714 | 12 | 56 | 3.2 | 3.2 | 0.00 | 0.00 | 0.00 | 85 | 1021.5 |
| 20260508142211 | 13 | 72 | 3.2 | 4.8 | 0.00 | 0.00 | 0.00 | 84 | 1021.4 |
| 20260508141708 | 12 | 132 | 3.2 | 3.2 | 0.00 | 0.00 | 0.00 | 84 | 1021.6 |
| 20260508141205 | 12 | 86 | 3.2 | 3.2 | 0.00 | 0.00 | 0.00 | 86 | 1021.6 |
| 20260508140703 | 11 | 116 | 1.6 | 1.6 | 0.00 | 0.00 | 0.00 | 88 | 1021.7 |
| 20260508140159 | 11 | 92 | 1.6 | 3.2 | 0.00 | 0.00 | 0.00 | 89 | 1021.7 |
| 20260508135656 | 11 | 121 | 0.0 | 0.0 | 0.00 | 0.00 | 0.00 | 89 | 1021.6 |
| 20260508135151 | 11 | 124 | 1.6 | 1.6 | 0.00 | 0.00 | 0.00 | 89 | 1021.4 |
| 20260508134647 | 10 | 65 | 3.2 | 3.2 | 0.00 | 0.00 | 0.00 | 93 | 1021.5 |
| 20260508134145 | 10 | 118 | 0.0 | 0.0 | 0.00 | 0.00 | 0.00 | 96 | 1021.7 |
| 20260508133642 | 9 | 74 | 3.2 | 3.2 | 0.00 | 0.00 | 0.00 | 97 | 1021.6 |
| 20260508133139 | 8 | 43 | 1.6 | 3.2 | 0.00 | 0.00 | 0.00 | 99 | 1021.6 |
| 20260508132637 | 8 | 95 | 1.6 | 3.2 | 0.00 | 0.00 | 0.00 | 99 | 1021.6 |
| 20260508132133 | 8 | 61 | 4.8 | 4.8 | 0.00 | 0.00 | 0.00 | 99 | 1021.6 |
| 20260508131629 | 8 | 67 | 3.2 | 4.8 | 0.00 | 0.00 | 0.00 | 99 | 1021.6 |
| 20260508131126 | 8 | 93 | 0.0 | 0.0 | 0.00 | 0.00 | 0.00 | 99 | 1021.5 |
| 20260508130622 | 8 | 98 | 0.0 | 0.0 | 0.00 | 0.00 | 0.00 | 99 | 1021.6 |
| 20260508130119 | 7 | 84 | 0.0 | 0.0 | 0.00 | 0.00 | 0.00 | 99 | 1021.6 |
| 20260508125620 | 7 | 356 | 1.6 | 1.6 | 0.00 | 0.00 | 0.00 | 99 | 1021.3 |
| 20260508125118 | 8 | 90 | 3.2 | 3.2 | 0.00 | 0.00 | 0.00 | 99 | 1021.5 |
| 20260508124616 | 7 | 107 | 0.0 | 0.0 | 0.00 | 0.00 | 0.00 | 99 | 1021.4 |
| 20260508124112 | 7 | 102 | 1.6 | 1.6 | 0.00 | 0.00 | 0.00 | 99 | 1021.4 |
| 20260508123611 | 7 | 97 | 0.0 | 0.0 | 0.00 | 0.00 | 0.00 | 99 | 1021.3 |
| 20260508123108 | 7 | 104 | 0.0 | 0.0 | 0.00 | 0.00 | 0.00 | 99 | 1021.4 |
| 20260508122603 | 7 | 120 | 0.0 | 0.0 | 0.00 | 0.00 | 0.00 | 99 | 1021.4 |
| 20260508122101 | 7 | 113 | 3.2 | 3.2 | 0.00 | 0.00 | 0.00 | 99 | 1021.3 |
| 20260508121559 | 7 | 103 | 3.2 | 3.2 | 0.00 | 0.00 | 0.00 | 99 | 1021.2 |
| 20260508121057 | 6 | 97 | 3.2 | 3.2 | 0.00 | 0.00 | 0.00 | 99 | 1021.1 |
| 20260508120554 | 6 | 108 | 1.6 | 1.6 | 0.00 | 0.00 | 0.00 | 99 | 1021.0 |
| 20260508120053 | 6 | 84 | 3.2 | 3.2 | 0.00 | 0.00 | 0.00 | 99 | 1020.9 |
| 20260508115549 | 6 | 106 | 1.6 | 1.6 | 0.00 | 0.00 | 0.00 | 99 | 1021.1 |
| 20260508115046 | 6 | 99 | 3.2 | 4.8 | 0.00 | 0.00 | 0.00 | 99 | 1020.9 |
| 20260508114543 | 6 | 109 | 0.0 | 1.6 | 0.00 | 0.00 | 0.00 | 99 | 1020.9 |
| 20260508114039 | 6 | 120 | 1.6 | 3.2 | 0.00 | 0.00 | 0.00 | 99 | 1020.8 |
| 20260508113537 | 6 | 99 | 3.2 | 4.8 | 0.00 | 0.00 | 0.00 | 99 | 1020.8 |
| 20260508113035 | 6 | 92 | 3.2 | 3.2 | 0.00 | 0.00 | 0.00 | 99 | 1020.5 |
| 20260508112531 | 6 | 98 | 0.0 | 0.0 | 0.00 | 0.00 | 0.00 | 99 | 1020.4 |
| 20260508112028 | 6 | 94 | 1.6 | 1.6 | 0.00 | 0.00 | 0.00 | 99 | 1020.5 |
| 20260508111525 | 6 | 111 | 3.2 | 3.2 | 0.00 | 0.00 | 0.00 | 99 | 1020.6 |
| 20260508111021 | 5 | 92 | 0.0 | 0.0 | 0.00 | 0.00 | 0.00 | 99 | 1020.5 |
| 20260508110520 | 5 | 81 | 0.0 | 0.0 | 0.00 | 0.00 | 0.00 | 99 | 1020.3 |
| 20260508110015 | 5 | 98 | 0.0 | 0.0 | 0.00 | 0.00 | 0.00 | 99 | 1020.0 |
| 20260508105510 | 5 | 106 | 0.0 | 0.0 | 0.00 | 0.00 | 0.00 | 99 | 1020.1 |
| 20260508105008 | 5 | 107 | 0.0 | 0.0 | 0.00 | 0.00 | 0.00 | 99 | 1020.0 |
| 20260508104506 | 5 | 107 | 0.0 | 0.0 | 0.00 | 0.00 | 0.00 | 99 | 1019.8 |
| 20260508104002 | 5 | 108 | 0.0 | 0.0 | 0.00 | 0.00 | 0.00 | 99 | 1019.7 |
| 20260508103459 | 5 | 108 | 0.0 | 0.0 | 0.00 | 0.00 | 0.00 | 99 | 1019.8 |
| 20260508102955 | 5 | 107 | 0.0 | 0.0 | 0.00 | 0.00 | 0.00 | 99 | 1019.7 |
| 20260508102454 | 5 | 110 | 0.0 | 0.0 | 0.00 | 0.00 | 0.00 | 99 | 1019.8 |
| 20260508101951 | 5 | 116 | 0.0 | 0.0 | 0.00 | 0.00 | 0.00 | 99 | 1019.9 |
| 20260508101449 | 6 | 127 | 0.0 | 0.0 | 0.00 | 0.00 | 0.00 | 99 | 1019.8 |
| 20260508100945 | 6 | 180 | 0.0 | 0.0 | 0.00 | 0.00 | 0.00 | 99 | 1019.8 |
| 20260508100444 | 6 | 181 | 0.0 | 0.0 | 0.00 | 0.00 | 0.00 | 99 | 1019.8 |
| 20260508095940 | 6 | 106 | 0.0 | 0.0 | 0.00 | 0.00 | 0.00 | 99 | 1019.4 |
| 20260508095438 | 6 | 36 | 0.0 | 0.0 | 0.00 | 0.00 | 0.00 | 99 | 1019.7 |
| 20260508094934 | 6 | 104 | 0.0 | 0.0 | 0.00 | 0.00 | 0.00 | 99 | 1019.4 |
| 20260508094431 | 6 | 100 | 0.0 | 0.0 | 0.00 | 0.00 | 0.00 | 99 | 1019.6 |
| 20260508093928 | 6 | 100 | 0.0 | 0.0 | 0.00 | 0.00 | 0.00 | 99 | 1019.6 |
| 20260508093426 | 6 | 91 | 0.0 | 0.0 | 0.00 | 0.00 | 0.00 | 99 | 1019.6 |
| 20260508092923 | 6 | 91 | 1.6 | 1.6 | 0.00 | 0.00 | 0.00 | 99 | 1019.7 |
| 20260508092421 | 6 | 100 | 1.6 | 1.6 | 0.00 | 0.00 | 0.00 | 99 | 1019.6 |
| 20260508091919 | 7 | 85 | 0.0 | 1.6 | 0.00 | 0.00 | 0.00 | 99 | 1019.7 |
| 20260508091415 | 7 | 141 | 0.0 | 0.0 | 0.00 | 0.00 | 0.00 | 99 | 1019.4 |
| 20260508090913 | 7 | 110 | 0.0 | 0.0 | 0.00 | 0.00 | 0.00 | 99 | 1019.4 |
| 20260508090411 | 7 | 106 | 1.6 | 1.6 | 0.00 | 0.00 | 0.00 | 99 | 1019.6 |
| 20260508085906 | 7 | 108 | 0.0 | 0.0 | 0.00 | 0.00 | 0.00 | 99 | 1019.3 |
| 20260508085403 | 7 | 109 | 0.0 | 0.0 | 0.00 | 0.00 | 0.00 | 99 | 1019.1 |
| 20260508084900 | 7 | 106 | 0.0 | 0.0 | 0.00 | 0.00 | 0.00 | 99 | 1019.1 |
| 20260508084356 | 7 | 99 | 0.0 | 0.0 | 0.00 | 0.00 | 0.00 | 99 | 1019.3 |
| 20260508083854 | 7 | 101 | 3.2 | 3.2 | 0.00 | 0.00 | 0.00 | 99 | 1019.3 |
| 20260508083352 | 7 | 103 | 1.6 | 1.6 | 0.00 | 0.00 | 0.00 | 99 | 1019.1 |
| 20260508082851 | 7 | 91 | 3.2 | 4.8 | 0.00 | 0.00 | 0.00 | 99 | 1019.3 |
| 20260508082349 | 7 | 86 | 1.6 | 1.6 | 0.00 | 0.00 | 0.00 | 99 | 1019.2 |
| 20260508081846 | 7 | 104 | 0.0 | 1.6 | 0.00 | 0.00 | 0.00 | 99 | 1019.2 |
| 20260508081343 | 8 | 109 | 0.0 | 0.0 | 0.00 | 0.00 | 0.00 | 99 | 1019.1 |
| 20260508080840 | 8 | 94 | 0.0 | 0.0 | 0.00 | 0.00 | 0.00 | 99 | 1019.2 |
| 20260508080338 | 7 | 105 | 0.0 | 0.0 | 0.00 | 0.00 | 0.00 | 99 | 1018.9 |
| 20260508075834 | 8 | 105 | 1.6 | 1.6 | 0.00 | 0.00 | 0.00 | 99 | 1019.1 |
| 20260508075331 | 8 | 103 | 0.0 | 0.0 | 0.00 | 0.00 | 0.00 | 99 | 1019.0 |
| 20260508074829 | 8 | 102 | 0.0 | 0.0 | 0.00 | 0.00 | 0.00 | 99 | 1019.2 |
| 20260508074326 | 8 | 96 | 0.0 | 0.0 | 0.00 | 0.00 | 0.00 | 99 | 1019.0 |
| 20260508073823 | 8 | 92 | 0.0 | 0.0 | 0.00 | 0.00 | 0.00 | 99 | 1019.1 |
| 20260508073321 | 8 | 111 | 0.0 | 0.0 | 0.00 | 0.00 | 0.00 | 99 | 1019.3 |
| 20260508072817 | 8 | 87 | 0.0 | 0.0 | 0.00 | 0.00 | 0.00 | 99 | 1019.1 |
| 20260508072314 | 8 | 99 | 3.2 | 3.2 | 0.00 | 0.00 | 0.00 | 99 | 1019.0 |
| 20260508071811 | 8 | 107 | 0.0 | 0.0 | 0.00 | 0.00 | 0.00 | 99 | 1019.0 |
| 20260508071309 | 8 | 105 | 1.6 | 1.6 | 0.00 | 0.00 | 0.00 | 99 | 1019.0 |
| 20260508070806 | 8 | 93 | 0.0 | 0.0 | 0.00 | 0.00 | 0.00 | 99 | 1019.1 |
| 20260508070305 | 8 | 99 | 0.0 | 0.0 | 0.00 | 0.00 | 0.00 | 99 | 1018.9 |
| 20260508065802 | 8 | 99 | 0.0 | 0.0 | 0.00 | 0.00 | 0.00 | 99 | 1018.9 |
| 20260508065259 | 8 | 98 | 0.0 | 0.0 | 0.00 | 0.00 | 0.00 | 99 | 1019.1 |
| 20260508064758 | 8 | 101 | 0.0 | 0.0 | 0.00 | 0.00 | 0.00 | 99 | 1019.2 |
| 20260508064255 | 8 | 103 | 0.0 | 0.0 | 0.00 | 0.00 | 0.00 | 99 | 1019.3 |
| 20260508063752 | 8 | 103 | 0.0 | 0.0 | 0.00 | 0.00 | 0.00 | 99 | 1019.1 |
| 20260508063250 | 7 | 103 | 0.0 | 0.0 | 0.00 | 0.00 | 0.00 | 99 | 1019.1 |
| 20260508062747 | 7 | 103 | 0.0 | 0.0 | 0.00 | 0.00 | 0.00 | 99 | 1019.0 |
| 20260508062245 | 7 | 103 | 0.0 | 0.0 | 0.00 | 0.00 | 0.00 | 99 | 1018.9 |
| 20260508061741 | 7 | 103 | 0.0 | 0.0 | 0.00 | 0.00 | 0.00 | 99 | 1019.0 |
| 20260508061238 | 7 | 103 | 0.0 | 0.0 | 0.00 | 0.00 | 0.00 | 99 | 1019.2 |
| 20260508060735 | 7 | 103 | 0.0 | 0.0 | 0.00 | 0.00 | 0.00 | 99 | 1019.2 |
| 20260508060233 | 7 | 103 | 0.0 | 0.0 | 0.00 | 0.00 | 0.00 | 99 | 1019.2 |
| 20260508055728 | 7 | 103 | 0.0 | 0.0 | 0.00 | 0.00 | 0.00 | 99 | 1019.1 |
| 20260508055225 | 7 | 103 | 0.0 | 0.0 | 0.00 | 0.00 | 0.00 | 99 | 1019.1 |
| 20260508054721 | 7 | 103 | 0.0 | 0.0 | 0.00 | 0.00 | 0.00 | 99 | 1019.2 |
| 20260508054220 | 7 | 103 | 0.0 | 0.0 | 0.00 | 0.00 | 0.00 | 99 | 1019.1 |
| 20260508053716 | 7 | 103 | 0.0 | 0.0 | 0.00 | 0.00 | 0.00 | 99 | 1019.2 |
| 20260508053214 | 8 | 103 | 0.0 | 0.0 | 0.00 | 0.00 | 0.00 | 99 | 1019.2 |
| 20260508052711 | 8 | 103 | 0.0 | 0.0 | 0.00 | 0.00 | 0.00 | 99 | 1019.1 |
| 20260508052208 | 8 | 103 | 0.0 | 0.0 | 0.00 | 0.00 | 0.00 | 99 | 1019.3 |
| 20260508051704 | 8 | 103 | 0.0 | 0.0 | 0.00 | 0.00 | 0.00 | 99 | 1019.1 |
| 20260508051159 | 8 | 103 | 0.0 | 0.0 | 0.00 | 0.00 | 0.00 | 99 | 1019.1 |
| 20260508050656 | 8 | 103 | 0.0 | 0.0 | 0.00 | 0.00 | 0.00 | 99 | 1019.1 |
| 20260508050154 | 8 | 103 | 0.0 | 0.0 | 0.00 | 0.00 | 0.00 | 99 | 1019.2 |
| 20260508045649 | 8 | 103 | 0.0 | 0.0 | 0.00 | 0.00 | 0.00 | 99 | 1019.1 |
| 20260508045147 | 8 | 102 | 0.0 | 0.0 | 0.00 | 0.00 | 0.00 | 99 | 1019.1 |
| 20260508044644 | 8 | 109 | 0.0 | 0.0 | 0.00 | 0.00 | 0.00 | 99 | 1018.7 |
| 20260508044140 | 8 | 109 | 0.0 | 0.0 | 0.00 | 0.00 | 0.00 | 99 | 1018.6 |
| 20260508043637 | 8 | 109 | 0.0 | 0.0 | 0.00 | 0.00 | 0.00 | 99 | 1018.6 |
| 20260508043135 | 9 | 109 | 0.0 | 0.0 | 0.00 | 0.00 | 0.00 | 99 | 1018.6 |
| 20260508042631 | 9 | 109 | 0.0 | 0.0 | 0.00 | 0.00 | 0.00 | 99 | 1018.6 |
| 20260508042128 | 9 | 109 | 0.0 | 0.0 | 0.00 | 0.00 | 0.00 | 99 | 1018.6 |
| 20260508041624 | 9 | 109 | 0.0 | 0.0 | 0.00 | 0.00 | 0.00 | 99 | 1018.6 |
| 20260508041121 | 10 | 109 | 0.0 | 0.0 | 0.00 | 0.00 | 0.00 | 99 | 1018.6 |
| 20260508040618 | 10 | 109 | 0.0 | 0.0 | 0.00 | 0.00 | 0.00 | 99 | 1018.6 |
| 20260508040116 | 10 | 109 | 0.0 | 0.0 | 0.00 | 0.28 | 0.28 | 99 | 1018.6 |
| 20260508035613 | 10 | 109 | 0.0 | 0.0 | 0.00 | 0.28 | 0.28 | 99 | 1018.6 |
| 20260508035110 | 10 | 109 | 0.0 | 0.0 | 0.00 | 0.28 | 0.28 | 99 | 1018.3 |
| 20260508034606 | 10 | 108 | 0.0 | 0.0 | 0.00 | 0.28 | 0.28 | 99 | 1018.2 |
| 20260508034104 | 10 | 113 | 0.0 | 0.0 | 0.00 | 0.28 | 0.28 | 99 | 1018.4 |
| 20260508033601 | 10 | 113 | 0.0 | 0.0 | 0.00 | 0.28 | 0.28 | 99 | 1018.3 |
| 20260508033059 | 10 | 134 | 0.0 | 0.0 | 0.00 | 0.28 | 0.28 | 99 | 1018.4 |
| 20260508032555 | 10 | 134 | 0.0 | 0.0 | 0.00 | 0.28 | 0.28 | 99 | 1018.6 |
| 20260508032053 | 10 | 134 | 0.0 | 0.0 | 0.00 | 0.28 | 0.28 | 99 | 1018.6 |
| 20260508031550 | 10 | 134 | 0.0 | 0.0 | 0.00 | 0.28 | 0.28 | 99 | 1018.3 |
| 20260508031046 | 10 | 135 | 0.0 | 0.0 | 0.00 | 0.28 | 0.28 | 99 | 1018.3 |
| 20260508030542 | 11 | 135 | 0.0 | 0.0 | 0.00 | 0.28 | 0.28 | 99 | 1018.2 |
| 20260508030041 | 11 | 135 | 0.0 | 0.0 | 0.00 | 0.28 | 0.28 | 99 | 1018.1 |
| 20260508025536 | 11 | 135 | 0.0 | 0.0 | 0.00 | 0.28 | 0.28 | 99 | 1018.2 |
| 20260508025034 | 11 | 135 | 0.0 | 0.0 | 0.00 | 0.28 | 0.28 | 99 | 1018.1 |
| 20260508024529 | 11 | 134 | 0.0 | 0.0 | 0.00 | 0.28 | 0.28 | 99 | 1017.8 |
| 20260508024027 | 11 | 130 | 0.0 | 0.0 | 0.00 | 0.28 | 0.28 | 99 | 1017.9 |
| 20260508023523 | 11 | 130 | 0.0 | 0.0 | 0.00 | 0.28 | 0.28 | 99 | 1017.7 |
| 20260508023021 | 11 | 129 | 0.0 | 0.0 | 0.00 | 0.28 | 0.28 | 99 | 1017.8 |
| 20260508022516 | 11 | 124 | 0.0 | 0.0 | 0.00 | 0.28 | 0.28 | 99 | 1017.9 |
| 20260508022013 | 11 | 137 | 0.0 | 0.0 | 0.00 | 0.28 | 0.28 | 99 | 1017.6 |
| 20260508021509 | 11 | 139 | 0.0 | 0.0 | 0.00 | 0.28 | 0.28 | 98 | 1017.9 |
| 20260508021005 | 11 | 140 | 0.0 | 0.0 | 0.00 | 0.28 | 0.28 | 98 | 1017.8 |
| 20260508020503 | 11 | 141 | 0.0 | 0.0 | 0.00 | 0.28 | 0.28 | 98 | 1017.5 |
| 20260508020000 | 12 | 107 | 0.0 | 0.0 | 0.00 | 0.28 | 0.28 | 97 | 1017.6 |
| 20260508015458 | 12 | 107 | 0.0 | 0.0 | 0.00 | 0.28 | 0.28 | 97 | 1017.3 |
| 20260508014954 | 12 | 107 | 0.0 | 0.0 | 0.00 | 0.28 | 0.28 | 96 | 1017.4 |
| 20260508014451 | 12 | 107 | 0.0 | 0.0 | 0.00 | 0.28 | 0.28 | 96 | 1017.2 |
| 20260508013947 | 12 | 101 | 0.0 | 0.0 | 0.00 | 0.28 | 0.28 | 95 | 1016.9 |
| 20260508013443 | 12 | 102 | 0.0 | 0.0 | 0.00 | 0.28 | 0.28 | 94 | 1017.1 |
| 20260508012941 | 12 | 100 | 0.0 | 0.0 | 0.00 | 0.28 | 0.28 | 94 | 1016.8 |
| 20260508012437 | 12 | 99 | 1.6 | 1.6 | 0.00 | 0.28 | 0.28 | 94 | 1017.0 |
| 20260508011935 | 12 | 97 | 0.0 | 0.0 | 0.00 | 0.28 | 0.28 | 94 | 1016.7 |
| 20260508011434 | 12 | 94 | 0.0 | 0.0 | 0.00 | 0.28 | 0.28 | 94 | 1016.8 |
| 20260508010930 | 12 | 99 | 0.0 | 0.0 | 0.00 | 0.28 | 0.28 | 93 | 1016.4 |
| 20260508010427 | 12 | 99 | 0.0 | 0.0 | 0.00 | 0.28 | 0.28 | 92 | 1016.2 |
| 20260508005924 | 13 | 98 | 0.0 | 0.0 | 0.00 | 0.28 | 0.28 | 92 | 1016.6 |
| 20260508005421 | 13 | 116 | 0.0 | 0.0 | 0.00 | 0.28 | 0.28 | 91 | 1016.4 |
| 20260508004917 | 13 | 101 | 0.0 | 0.0 | 0.00 | 0.28 | 0.28 | 91 | 1016.6 |
| 20260508004414 | 13 | 99 | 1.6 | 1.6 | 0.00 | 0.28 | 0.28 | 91 | 1016.2 |
| 20260508003910 | 13 | 75 | 0.0 | 0.0 | 0.00 | 0.28 | 0.28 | 91 | 1016.0 |
| 20260508003407 | 13 | 104 | 0.0 | 0.0 | 0.00 | 0.28 | 0.28 | 91 | 1016.0 |
| 20260508002904 | 13 | 126 | 0.0 | 0.0 | 0.00 | 0.28 | 0.28 | 90 | 1016.1 |
| 20260508002401 | 13 | 135 | 0.0 | 0.0 | 0.00 | 0.28 | 0.28 | 90 | 1016.0 |
| 20260508001857 | 13 | 108 | 0.0 | 0.0 | 0.00 | 0.28 | 0.28 | 89 | 1016.1 |
| 20260508001353 | 13 | 115 | 0.0 | 0.0 | 0.00 | 0.28 | 0.28 | 88 | 1016.0 |
| 20260508000850 | 14 | 114 | 0.0 | 0.0 | 0.00 | 0.28 | 0.28 | 87 | 1015.9 |
| 20260508000346 | 14 | 116 | 0.0 | 0.0 | 0.00 | 0.28 | 0.28 | 86 | 1016.0 |
| 20260507235843 | 14 | 121 | 0.0 | 0.0 | 0.00 | 0.28 | 0.28 | 85 | 1015.8 |
| 20260507235340 | 15 | 122 | 0.0 | 0.0 | 0.00 | 0.28 | 0.28 | 85 | 1015.8 |
| 20260507234837 | 15 | 92 | 0.0 | 0.0 | 0.00 | 0.28 | 0.28 | 83 | 1016.1 |
| 20260507234334 | 15 | 158 | 0.0 | 0.0 | 0.00 | 0.28 | 0.28 | 82 | 1016.0 |
| 20260507233830 | 16 | 77 | 1.6 | 3.2 | 0.00 | 0.28 | 0.28 | 82 | 1016.0 |
| 20260507233328 | 15 | 82 | 0.0 | 0.0 | 0.00 | 0.28 | 0.28 | 83 | 1016.0 |
| 20260507232826 | 15 | 86 | 0.0 | 0.0 | 0.00 | 0.28 | 0.28 | 82 | 1016.1 |
| 20260507232322 | 16 | 143 | 0.0 | 0.0 | 0.00 | 0.28 | 0.28 | 80 | 1016.0 |
| 20260507231819 | 17 | 108 | 0.0 | 0.0 | 0.00 | 0.28 | 0.28 | 76 | 1016.0 |
| 20260507231316 | 18 | 189 | 0.0 | 1.6 | 0.00 | 0.28 | 0.28 | 72 | 1016.0 |
| 20260507230812 | 17 | 159 | 0.0 | 0.0 | 0.00 | 0.28 | 0.28 | 73 | 1016.0 |
| 20260507230309 | 17 | 147 | 0.0 | 0.0 | 0.00 | 0.28 | 0.28 | 75 | 1016.0 |
| 20260507225804 | 18 | 65 | 1.6 | 1.6 | 0.00 | 0.28 | 0.28 | 74 | 1016.1 |
| 20260507225300 | 17 | 23 | 0.0 | 0.0 | 0.00 | 0.28 | 0.28 | 74 | 1016.3 |
| 20260507224756 | 18 | 116 | 1.6 | 1.6 | 0.00 | 0.28 | 0.28 | 73 | 1016.1 |
| 20260507224253 | 18 | 162 | 0.0 | 0.0 | 0.00 | 0.28 | 0.28 | 71 | 1016.2 |
| 20260507223749 | 18 | 217 | 0.0 | 0.0 | 0.00 | 0.28 | 0.28 | 73 | 1016.2 |
| 20260507223245 | 17 | 241 | 0.0 | 1.6 | 0.00 | 0.28 | 0.28 | 75 | 1016.0 |
| 20260507222743 | 16 | 284 | 0.0 | 0.0 | 0.00 | 0.28 | 0.28 | 76 | 1016.0 |
| 20260507222233 | 15 | 286 | 1.6 | 1.6 | 0.00 | 0.28 | 0.28 | 73 | 1015.8 |
| 20260507221730 | 15 | 265 | 0.0 | 1.6 | 0.00 | 0.28 | 0.28 | 75 | 1015.9 |
| 20260507221226 | 15 | 303 | 1.6 | 1.6 | 0.00 | 0.28 | 0.28 | 74 | 1015.9 |
| 20260507220723 | 15 | 246 | 1.6 | 1.6 | 0.00 | 0.28 | 0.28 | 75 | 1016.0 |
| 20260507220222 | 16 | 229 | 0.0 | 0.0 | 0.00 | 0.28 | 0.28 | 74 | 1015.8 |
| 20260507215717 | 16 | 252 | 0.0 | 0.0 | 0.00 | 0.28 | 0.28 | 71 | 1015.7 |
| 20260507215215 | 16 | 244 | 1.6 | 1.6 | 0.00 | 0.28 | 0.28 | 75 | 1015.8 |
| 20260507214712 | 16 | 267 | 0.0 | 1.6 | 0.00 | 0.28 | 0.28 | 72 | 1015.9 |
| 20260507214209 | 16 | 215 | 1.6 | 1.6 | 0.00 | 0.28 | 0.28 | 72 | 1015.6 |
| 20260507213704 | 16 | 354 | 0.0 | 1.6 | 0.00 | 0.28 | 0.28 | 71 | 1015.7 |
| 20260507213202 | 16 | 304 | 1.6 | 3.2 | 0.00 | 0.28 | 0.28 | 68 | 1015.6 |
| 20260507212658 | 16 | 252 | 3.2 | 3.2 | 0.00 | 0.28 | 0.28 | 69 | 1015.5 |
| 20260507212155 | 15 | 272 | 3.2 | 3.2 | 0.00 | 0.28 | 0.28 | 74 | 1015.6 |
| 20260507211652 | 15 | 291 | 1.6 | 3.2 | 0.00 | 0.28 | 0.28 | 76 | 1015.6 |
| 20260507211147 | 15 | 319 | 1.6 | 3.2 | 0.00 | 0.28 | 0.28 | 76 | 1015.6 |
| 20260507210645 | 15 | 272 | 3.2 | 3.2 | 0.00 | 0.28 | 0.28 | 76 | 1015.5 |
| 20260507210141 | 15 | 216 | 1.6 | 1.6 | 0.00 | 0.28 | 0.28 | 75 | 1015.7 |
| 20260507205638 | 16 | 282 | 3.2 | 3.2 | 0.00 | 0.28 | 0.28 | 72 | 1015.4 |
| 20260507205134 | 16 | 239 | 0.0 | 0.0 | 0.00 | 0.28 | 0.28 | 72 | 1015.4 |
| 20260507204631 | 16 | 307 | 6.4 | 8.0 | 0.00 | 0.28 | 0.28 | 72 | 1015.3 |
| 20260507204129 | 16 | 223 | 1.6 | 1.6 | 0.00 | 0.28 | 0.28 | 74 | 1015.7 |
| 20260507203626 | 15 | 223 | 1.6 | 1.6 | 0.00 | 0.28 | 0.28 | 77 | 1015.4 |
| 20260507203123 | 16 | 295 | 1.6 | 3.2 | 0.00 | 0.28 | 0.28 | 74 | 1015.4 |
| 20260507202619 | 16 | 258 | 0.0 | 1.6 | 0.00 | 0.28 | 0.28 | 74 | 1015.3 |
| 20260507202115 | 16 | 295 | 3.2 | 3.2 | 0.00 | 0.28 | 0.28 | 72 | 1015.8 |
| 20260507201610 | 16 | 277 | 3.2 | 4.8 | 0.00 | 0.28 | 0.28 | 73 | 1015.4 |
| 20260507201108 | 15 | 230 | 1.6 | 3.2 | 0.00 | 0.28 | 0.28 | 76 | 1015.8 |
| 20260507200603 | 15 | 192 | 3.2 | 3.2 | 0.00 | 0.28 | 0.28 | 78 | 1015.6 |
| 20260507200100 | 15 | 224 | 0.0 | 1.6 | 0.00 | 0.28 | 0.28 | 78 | 1015.8 |
| 20260507195557 | 14 | 235 | 1.6 | 3.2 | 0.00 | 0.28 | 0.28 | 79 | 1015.7 |
| 20260507195054 | 14 | 226 | 3.2 | 4.8 | 0.00 | 0.28 | 0.28 | 80 | 1016.0 |
| 20260507194550 | 15 | 194 | 3.2 | 4.8 | 0.00 | 0.28 | 0.28 | 80 | 1016.1 |
| 20260507194046 | 14 | 209 | 1.6 | 1.6 | 0.00 | 0.28 | 0.28 | 81 | 1015.9 |
| 20260507193544 | 14 | 238 | 1.6 | 1.6 | 0.00 | 0.28 | 0.28 | 81 | 1015.8 |
| 20260507193041 | 15 | 221 | 4.8 | 4.8 | 0.00 | 0.28 | 0.28 | 80 | 1015.8 |
| 20260507192537 | 14 | 14 | 1.6 | 1.6 | 0.00 | 0.28 | 0.28 | 81 | 1015.8 |
| 20260507192034 | 15 | 282 | 1.6 | 1.6 | 0.00 | 0.28 | 0.28 | 82 | 1015.7 |
| 20260507191529 | 14 | 311 | 3.2 | 3.2 | 0.00 | 0.28 | 0.28 | 81 | 1015.6 |
| 20260507191026 | 14 | 298 | 3.2 | 3.2 | 0.00 | 0.28 | 0.28 | 82 | 1015.9 |
| 20260507190523 | 14 | 244 | 0.0 | 0.0 | 0.00 | 0.28 | 0.28 | 82 | 1016.1 |
| 20260507190022 | 13 | 302 | 4.8 | 4.8 | 0.00 | 0.28 | 0.28 | 82 | 1016.0 |